Back to catalog

COSMOS 2251 DEB

AliveLEO
NORAD 35062·DEBRIS·🇷🇺 Russia

Launched Jun 16, 1993 from Plesetsk Cosmodrome

Loading…

Next Passes (next 24 hours)

TLE

AgingSource: Space-Track

Epoch: Sep 12, 2026, 12:04 UTC

1 35062U 93036AHR 26255.50338834  .00002017  00000-0  80259-3 0  9998
2 35062  74.0776 321.3688 0127288 255.5522 103.1473 14.24957842893964

Track COSMOS 2251 DEB in real time with AllMySat

Download on the App Store